Time,TemperatureF,DewpointF,PressureIn,WindDirection,WindDirectionDegrees,WindSpeedMPH,WindSpeedGustMPH,Humidity,HourlyPrecipIn,Conditions,Clouds,dailyrainin,SoftwareType,DateUTC
2013-01-31 00:00:00,69.4,58.0,29.90,SSW,195,7.0,14.0,67,0.00,,,0.00,VWS V14.01,2013-01-31 05:00:00,
2013-01-31 00:07:00,69.2,58.2,29.90,SSW,201,4.0,14.0,68,0.00,,,0.00,VWS V14.01,2013-01-31 05:07:00,
2013-01-31 00:10:00,69.2,58.2,29.90,SSW,201,4.0,14.0,68,0.00,,,0.00,VWS V14.01,2013-01-31 05:10:00,
2013-01-31 00:17:00,69.1,58.1,29.89,SSW,200,2.0,14.0,68,0.00,,,0.00,VWS V14.01,2013-01-31 05:17:00,
2013-01-31 00:20:00,69.1,58.1,29.89,SSW,200,2.0,14.0,68,0.00,,,0.00,VWS V14.01,2013-01-31 05:20:00,
2013-01-31 00:27:00,69.0,58.0,29.89,South,190,13.0,16.0,68,0.00,,,0.00,VWS V14.01,2013-01-31 05:27:00,
2013-01-31 00:30:00,69.0,58.0,29.89,South,190,13.0,16.0,68,0.00,,,0.00,VWS V14.01,2013-01-31 05:30:00,
2013-01-31 00:37:00,69.0,58.0,29.89,South,186,6.0,15.0,68,0.00,,,0.00,VWS V14.01,2013-01-31 05:37:00,
2013-01-31 00:40:00,69.0,58.0,29.89,South,186,6.0,15.0,68,0.00,,,0.00,VWS V14.01,2013-01-31 05:40:00,
2013-01-31 00:47:00,69.0,58.4,29.89,South,184,7.0,18.0,69,0.00,,,0.00,VWS V14.01,2013-01-31 05:47:00,
2013-01-31 00:50:00,69.0,58.4,29.89,South,184,7.0,18.0,69,0.00,,,0.00,VWS V14.01,2013-01-31 05:50:00,
2013-01-31 00:57:00,69.0,58.4,29.89,SSW,208,7.0,15.0,69,0.00,,,0.00,VWS V14.01,2013-01-31 05:57:00,
2013-01-31 01:00:00,69.0,58.4,29.89,SSW,208,7.0,15.0,69,0.00,,,0.00,VWS V14.01,2013-01-31 06:00:00,
2013-01-31 01:07:00,69.0,58.4,29.89,SSW,210,8.0,15.0,69,0.00,,,0.00,VWS V14.01,2013-01-31 06:07:00,
2013-01-31 01:10:00,69.0,58.4,29.89,SSW,210,8.0,15.0,69,0.00,,,0.00,VWS V14.01,2013-01-31 06:10:00,
2013-01-31 01:17:00,69.0,58.4,29.89,SSW,209,5.0,15.0,69,0.00,,,0.00,VWS V14.01,2013-01-31 06:17:00,
2013-01-31 01:20:00,69.0,58.4,29.89,SSW,209,5.0,15.0,69,0.00,,,0.00,VWS V14.01,2013-01-31 06:20:00,
2013-01-31 01:27:00,68.9,58.3,29.89,South,186,6.0,14.0,69,0.00,,,0.00,VWS V14.01,2013-01-31 06:27:00,
2013-01-31 01:30:00,68.9,58.3,29.89,South,186,6.0,14.0,69,0.00,,,0.00,VWS V14.01,2013-01-31 06:30:00,
2013-01-31 01:37:00,67.3,56.8,29.93,WNW,301,16.0,26.0,69,0.00,,,0.00,VWS V14.01,2013-01-31 06:37:00,
2013-01-31 01:40:00,67.3,56.8,29.93,WNW,301,16.0,26.0,69,0.00,,,0.00,VWS V14.01,2013-01-31 06:40:00,
2013-01-31 01:47:00,62.6,51.5,29.94,NNW,339,12.0,24.0,67,0.00,,,0.00,VWS V14.01,2013-01-31 06:47:00,
2013-01-31 01:50:00,62.6,51.5,29.94,NNW,339,12.0,24.0,67,0.00,,,0.00,VWS V14.01,2013-01-31 06:50:00,
2013-01-31 01:57:00,60.9,50.7,29.94,WNW,296,12.0,19.0,69,0.02,,,0.02,VWS V14.01,2013-01-31 06:57:00,
2013-01-31 02:00:00,60.9,50.7,29.94,WNW,296,12.0,19.0,69,0.02,,,0.02,VWS V14.01,2013-01-31 07:00:00,
2013-01-31 02:07:00,60.5,50.7,29.95,NW,315,6.0,16.0,70,0.02,,,0.02,VWS V14.01,2013-01-31 07:07:00,
2013-01-31 02:10:00,60.5,50.7,29.95,NW,315,6.0,16.0,70,0.02,,,0.02,VWS V14.01,2013-01-31 07:10:00,
2013-01-31 02:17:00,60.0,50.6,29.94,NW,306,4.0,15.0,71,0.02,,,0.02,VWS V14.01,2013-01-31 07:17:00,
2013-01-31 02:20:00,60.0,50.6,29.94,NW,306,4.0,15.0,71,0.02,,,0.02,VWS V14.01,2013-01-31 07:20:00,
2013-01-31 02:27:00,59.0,49.6,29.95,WNW,292,7.0,22.0,71,0.02,,,0.02,VWS V14.01,2013-01-31 07:27:00,
2013-01-31 02:30:00,59.0,49.6,29.95,WNW,292,7.0,22.0,71,0.02,,,0.02,VWS V14.01,2013-01-31 07:30:00,
2013-01-31 02:37:00,58.8,49.0,29.94,NW,311,5.0,18.0,70,0.02,,,0.02,VWS V14.01,2013-01-31 07:37:00,
2013-01-31 02:40:00,58.8,49.0,29.94,NW,311,5.0,18.0,70,0.02,,,0.02,VWS V14.01,2013-01-31 07:40:00,
2013-01-31 02:47:00,58.2,48.8,29.95,NNW,328,5.0,14.0,71,0.03,,,0.03,VWS V14.01,2013-01-31 07:47:00,
2013-01-31 02:50:00,58.2,48.8,29.95,NNW,328,5.0,14.0,71,0.03,,,0.03,VWS V14.01,2013-01-31 07:50:00,
2013-01-31 02:57:00,57.9,48.6,29.96,West,279,3.0,16.0,71,0.03,,,0.03,VWS V14.01,2013-01-31 07:57:00,
2013-01-31 03:00:00,57.9,48.6,29.96,West,279,3.0,16.0,71,0.03,,,0.03,VWS V14.01,2013-01-31 08:00:00,
2013-01-31 03:07:00,57.6,48.3,29.96,NW,320,5.0,13.0,71,0.01,,,0.03,VWS V14.01,2013-01-31 08:07:00,
2013-01-31 03:10:00,57.6,48.3,29.96,NW,320,5.0,13.0,71,0.01,,,0.03,VWS V14.01,2013-01-31 08:10:00,
2013-01-31 03:17:00,57.2,48.3,29.96,NNW,346,7.0,13.0,72,0.02,,,0.04,VWS V14.01,2013-01-31 08:17:00,
2013-01-31 03:20:00,57.2,48.3,29.96,NNW,346,7.0,13.0,72,0.02,,,0.04,VWS V14.01,2013-01-31 08:20:00,
2013-01-31 03:27:00,56.9,48.0,29.96,NW,310,6.0,12.0,72,0.02,,,0.04,VWS V14.01,2013-01-31 08:27:00,
2013-01-31 03:30:00,56.9,48.0,29.96,NW,310,6.0,12.0,72,0.02,,,0.04,VWS V14.01,2013-01-31 08:30:00,
2013-01-31 03:37:00,56.6,47.7,29.97,NW,312,7.0,9.0,72,0.02,,,0.04,VWS V14.01,2013-01-31 08:37:00,
2013-01-31 03:40:00,56.6,47.7,29.97,NW,312,7.0,9.0,72,0.02,,,0.04,VWS V14.01,2013-01-31 08:40:00,
2013-01-31 03:47:00,56.5,47.6,29.97,WNW,299,2.0,8.0,72,0.03,,,0.05,VWS V14.01,2013-01-31 08:47:00,
2013-01-31 03:50:00,56.5,47.6,29.97,WNW,299,2.0,8.0,72,0.03,,,0.05,VWS V14.01,2013-01-31 08:50:00,
2013-01-31 03:57:00,56.4,47.5,29.97,NNW,333,5.0,6.0,72,0.02,,,0.05,VWS V14.01,2013-01-31 08:57:00,
2013-01-31 04:00:00,56.4,47.5,29.97,NNW,333,5.0,6.0,72,0.02,,,0.05,VWS V14.01,2013-01-31 09:00:00,
2013-01-31 04:07:00,56.5,47.6,29.96,NW,320,1.0,7.0,72,0.02,,,0.05,VWS V14.01,2013-01-31 09:07:00,
2013-01-31 04:10:00,56.5,47.6,29.96,NW,320,1.0,7.0,72,0.02,,,0.05,VWS V14.01,2013-01-31 09:10:00,
2013-01-31 04:17:00,56.6,48.1,29.96,NW,320,2.0,5.0,73,0.02,,,0.05,VWS V14.01,2013-01-31 09:17:00,
2013-01-31 04:20:00,56.6,48.1,29.96,NW,320,2.0,5.0,73,0.02,,,0.05,VWS V14.01,2013-01-31 09:20:00,
2013-01-31 04:27:00,56.6,48.1,29.96,NNW,337,7.0,7.0,73,0.01,,,0.05,VWS V14.01,2013-01-31 09:27:00,
2013-01-31 04:30:00,56.6,48.1,29.96,NNW,337,7.0,7.0,73,0.01,,,0.05,VWS V14.01,2013-01-31 09:30:00,
2013-01-31 04:37:00,56.6,48.1,29.96,NNW,329,3.0,7.0,73,0.01,,,0.05,VWS V14.01,2013-01-31 09:37:00,
2013-01-31 04:40:00,56.6,48.1,29.96,NNW,329,3.0,7.0,73,0.01,,,0.05,VWS V14.01,2013-01-31 09:40:00,
2013-01-31 04:47:00,56.6,48.1,29.97,WNW,297,1.0,6.0,73,0.01,,,0.05,VWS V14.01,2013-01-31 09:47:00,
2013-01-31 04:50:00,56.6,48.1,29.97,WNW,297,1.0,6.0,73,0.01,,,0.05,VWS V14.01,2013-01-31 09:50:00,
2013-01-31 04:57:00,56.7,48.2,29.97,WNW,297,3.0,5.0,73,0.00,,,0.05,VWS V14.01,2013-01-31 09:57:00,
2013-01-31 05:00:00,56.7,48.2,29.97,WNW,297,3.0,5.0,73,0.00,,,0.05,VWS V14.01,2013-01-31 10:00:00,
2013-01-31 05:07:00,56.8,48.2,29.97,NNW,330,4.0,6.0,73,0.01,,,0.06,VWS V14.01,2013-01-31 10:07:00,
2013-01-31 05:10:00,56.8,48.2,29.97,NNW,330,4.0,6.0,73,0.01,,,0.06,VWS V14.01,2013-01-31 10:10:00,
2013-01-31 05:17:00,56.9,48.3,29.98,NNW,330,2.0,6.0,73,0.01,,,0.06,VWS V14.01,2013-01-31 10:17:00,
2013-01-31 05:20:00,56.9,48.3,29.98,NNW,330,2.0,6.0,73,0.01,,,0.06,VWS V14.01,2013-01-31 10:20:00,
2013-01-31 05:27:00,57.0,48.4,29.98,NNW,344,6.0,7.0,73,0.01,,,0.06,VWS V14.01,2013-01-31 10:27:00,
2013-01-31 05:30:00,57.0,48.4,29.98,NNW,344,6.0,7.0,73,0.01,,,0.06,VWS V14.01,2013-01-31 10:30:00,
2013-01-31 05:37:00,56.8,48.2,29.98,North,5,4.0,9.0,73,0.01,,,0.06,VWS V14.01,2013-01-31 10:37:00,
2013-01-31 05:40:00,56.8,48.2,29.98,North,5,4.0,9.0,73,0.01,,,0.06,VWS V14.01,2013-01-31 10:40:00,
2013-01-31 05:47:00,56.8,48.2,29.99,NW,321,1.0,7.0,73,0.01,,,0.06,VWS V14.01,2013-01-31 10:47:00,
2013-01-31 05:50:00,56.8,48.2,29.99,NW,321,1.0,7.0,73,0.01,,,0.06,VWS V14.01,2013-01-31 10:50:00,
2013-01-31 05:57:00,56.8,48.2,29.99,NW,321,1.0,4.0,73,0.01,,,0.06,VWS V14.01,2013-01-31 10:57:00,
2013-01-31 06:00:00,56.8,48.2,29.99,NW,321,1.0,4.0,73,0.01,,,0.06,VWS V14.01,2013-01-31 11:00:00,
2013-01-31 06:07:00,56.7,48.2,30.00,NW,321,1.0,4.0,73,0.01,,,0.06,VWS V14.01,2013-01-31 11:07:00,
2013-01-31 06:10:00,56.7,48.2,30.00,NW,321,1.0,4.0,73,0.01,,,0.06,VWS V14.01,2013-01-31 11:10:00,
2013-01-31 06:17:00,56.6,48.1,30.00,NW,321,0.0,4.0,73,0.00,,,0.06,VWS V14.01,2013-01-31 11:17:00,
2013-01-31 06:20:00,56.6,48.1,30.00,NW,321,0.0,4.0,73,0.00,,,0.06,VWS V14.01,2013-01-31 11:20:00,
2013-01-31 06:27:00,56.5,48.0,30.01,NW,321,2.0,3.0,73,0.00,,,0.06,VWS V14.01,2013-01-31 11:27:00,
2013-01-31 06:30:00,56.5,48.0,30.01,NW,321,2.0,3.0,73,0.00,,,0.06,VWS V14.01,2013-01-31 11:30:00,
2013-01-31 06:37:00,56.6,48.1,30.01,NW,321,3.0,5.0,73,0.00,,,0.06,VWS V14.01,2013-01-31 11:37:00,
2013-01-31 06:40:00,56.6,48.1,30.01,NW,321,3.0,5.0,73,0.00,,,0.06,VWS V14.01,2013-01-31 11:40:00,
2013-01-31 06:47:00,56.6,48.1,30.02,NNW,334,4.0,6.0,73,0.00,,,0.06,VWS V14.01,2013-01-31 11:47:00,
2013-01-31 06:50:00,56.6,48.1,30.02,NNW,334,4.0,6.0,73,0.00,,,0.06,VWS V14.01,2013-01-31 11:50:00,
2013-01-31 06:57:00,56.5,48.0,30.02,NNW,334,7.0,8.0,73,0.00,,,0.06,VWS V14.01,2013-01-31 11:57:00,
2013-01-31 07:00:00,56.5,48.0,30.02,NNW,334,7.0,8.0,73,0.00,,,0.06,VWS V14.01,2013-01-31 12:00:00,
2013-01-31 07:07:00,56.5,48.0,30.03,WNW,303,3.0,7.0,73,0.00,,,0.06,VWS V14.01,2013-01-31 12:07:00,
2013-01-31 07:10:00,56.5,48.0,30.03,WNW,303,3.0,7.0,73,0.00,,,0.06,VWS V14.01,2013-01-31 12:10:00,
2013-01-31 07:17:00,56.4,47.9,30.03,NW,324,0.0,6.0,73,0.00,,,0.06,VWS V14.01,2013-01-31 12:17:00,
2013-01-31 07:20:00,56.4,47.9,30.03,NW,324,0.0,6.0,73,0.00,,,0.06,VWS V14.01,2013-01-31 12:20:00,
2013-01-31 07:27:00,56.0,47.5,30.04,NW,319,2.0,8.0,73,0.00,,,0.06,VWS V14.01,2013-01-31 12:27:00,
2013-01-31 07:30:00,56.0,47.5,30.04,NW,319,2.0,8.0,73,0.00,,,0.06,VWS V14.01,2013-01-31 12:30:00,
2013-01-31 07:37:00,55.7,47.2,30.04,NW,325,9.0,9.0,73,0.00,,,0.06,VWS V14.01,2013-01-31 12:37:00,
2013-01-31 07:40:00,55.7,47.2,30.04,NW,325,9.0,9.0,73,0.00,,,0.06,VWS V14.01,2013-01-31 12:40:00,
2013-01-31 07:47:00,55.8,47.3,30.05,NW,325,4.0,13.0,73,0.00,,,0.06,VWS V14.01,2013-01-31 12:47:00,
2013-01-31 07:50:00,55.8,47.3,30.05,NW,325,4.0,13.0,73,0.00,,,0.06,VWS V14.01,2013-01-31 12:50:00,
2013-01-31 07:57:00,55.8,47.3,30.05,NW,311,6.0,11.0,73,0.00,,,0.06,VWS V14.01,2013-01-31 12:57:00,
2013-01-31 08:00:00,55.8,47.3,30.05,NW,311,6.0,11.0,73,0.00,,,0.06,VWS V14.01,2013-01-31 13:00:00,
2013-01-31 08:07:00,56.1,47.2,30.06,North,5,7.0,12.0,72,0.00,,,0.06,VWS V14.01,2013-01-31 13:07:00,
2013-01-31 08:10:00,56.1,47.2,30.06,North,5,7.0,12.0,72,0.00,,,0.06,VWS V14.01,2013-01-31 13:10:00,
2013-01-31 08:17:00,56.4,47.1,30.06,NW,311,7.0,13.0,71,0.00,,,0.06,VWS V14.01,2013-01-31 13:17:00,
2013-01-31 08:20:00,56.4,47.1,30.06,NW,311,7.0,13.0,71,0.00,,,0.06,VWS V14.01,2013-01-31 13:20:00,
2013-01-31 08:27:00,56.8,46.8,30.07,NNW,329,11.0,14.0,69,0.00,,,0.06,VWS V14.01,2013-01-31 13:27:00,
2013-01-31 08:30:00,56.8,46.8,30.07,NNW,329,11.0,14.0,69,0.00,,,0.06,VWS V14.01,2013-01-31 13:30:00,
2013-01-31 08:37:00,57.2,46.4,30.07,WNW,303,11.0,16.0,67,0.00,,,0.06,VWS V14.01,2013-01-31 13:37:00,
2013-01-31 08:40:00,57.2,46.4,30.07,WNW,303,11.0,16.0,67,0.00,,,0.06,VWS V14.01,2013-01-31 13:40:00,
2013-01-31 08:47:00,57.6,45.9,30.08,NNW,327,11.0,16.0,65,0.00,,,0.06,VWS V14.01,2013-01-31 13:47:00,
2013-01-31 08:50:00,57.6,45.9,30.08,NNW,327,11.0,16.0,65,0.00,,,0.06,VWS V14.01,2013-01-31 13:50:00,
2013-01-31 08:57:00,57.7,46.0,30.09,NW,323,6.0,14.0,65,0.00,,,0.06,VWS V14.01,2013-01-31 13:57:00,
2013-01-31 09:00:00,57.7,46.0,30.09,NW,323,6.0,14.0,65,0.00,,,0.06,VWS V14.01,2013-01-31 14:00:00,
2013-01-31 09:07:00,58.1,45.6,30.09,NNW,329,7.0,14.0,63,0.00,,,0.06,VWS V14.01,2013-01-31 14:07:00,
2013-01-31 09:10:00,58.1,45.6,30.09,NNW,329,7.0,14.0,63,0.00,,,0.06,VWS V14.01,2013-01-31 14:10:00,
2013-01-31 09:17:00,58.2,44.8,30.09,NNW,343,8.0,15.0,61,0.00,,,0.06,VWS V14.01,2013-01-31 14:17:00,
2013-01-31 09:20:00,58.2,44.8,30.09,NNW,343,8.0,15.0,61,0.00,,,0.06,VWS V14.01,2013-01-31 14:20:00,
2013-01-31 09:27:00,58.2,44.0,30.09,WNW,298,8.0,15.0,59,0.00,,,0.06,VWS V14.01,2013-01-31 14:27:00,
2013-01-31 09:30:00,58.2,44.0,30.09,WNW,298,8.0,15.0,59,0.00,,,0.06,VWS V14.01,2013-01-31 14:30:00,
2013-01-31 09:37:00,58.3,44.0,30.09,WNW,291,9.0,14.0,59,0.00,,,0.06,VWS V14.01,2013-01-31 14:37:00,
2013-01-31 09:40:00,58.3,44.0,30.09,WNW,291,9.0,14.0,59,0.00,,,0.06,VWS V14.01,2013-01-31 14:40:00,
2013-01-31 09:47:00,59.1,44.3,30.10,North,360,6.0,11.0,58,0.00,,,0.06,VWS V14.01,2013-01-31 14:47:00,
2013-01-31 09:50:00,59.1,44.3,30.10,North,360,6.0,11.0,58,0.00,,,0.06,VWS V14.01,2013-01-31 14:50:00,
2013-01-31 09:57:00,58.8,44.1,30.10,NNW,334,7.0,16.0,58,0.00,,,0.06,VWS V14.01,2013-01-31 14:57:00,
2013-01-31 10:00:00,58.8,44.1,30.10,NNW,334,7.0,16.0,58,0.00,,,0.06,VWS V14.01,2013-01-31 15:00:00,
2013-01-31 10:07:00,58.8,44.1,30.11,NNW,336,9.0,16.0,58,0.00,,,0.06,VWS V14.01,2013-01-31 15:07:00,
2013-01-31 10:10:00,58.8,44.1,30.11,NNW,336,9.0,16.0,58,0.00,,,0.06,VWS V14.01,2013-01-31 15:10:00,
2013-01-31 10:17:00,59.8,45.0,30.11,NNW,328,13.0,14.0,58,0.00,,,0.06,VWS V14.01,2013-01-31 15:17:00,
2013-01-31 10:20:00,59.8,45.0,30.11,NNW,328,13.0,14.0,58,0.00,,,0.06,VWS V14.01,2013-01-31 15:20:00,
2013-01-31 10:27:00,59.6,45.3,30.11,North,350,12.0,16.0,59,0.00,,,0.06,VWS V14.01,2013-01-31 15:27:00,
2013-01-31 10:30:00,59.6,45.3,30.11,North,350,12.0,16.0,59,0.00,,,0.06,VWS V14.01,2013-01-31 15:30:00,
2013-01-31 10:37:00,60.1,45.7,30.12,North,355,11.0,14.0,59,0.00,,,0.06,VWS V14.01,2013-01-31 15:37:00,
2013-01-31 10:40:00,60.1,45.7,30.12,North,355,11.0,14.0,59,0.00,,,0.06,VWS V14.01,2013-01-31 15:40:00,
2013-01-31 10:47:00,61.3,46.4,30.12,North,355,6.0,12.0,58,0.00,,,0.06,VWS V14.01,2013-01-31 15:47:00,
2013-01-31 10:50:00,61.3,46.4,30.12,North,355,6.0,12.0,58,0.00,,,0.06,VWS V14.01,2013-01-31 15:50:00,
2013-01-31 10:57:00,59.5,42.9,30.12,NW,317,7.0,17.0,54,0.00,,,0.06,VWS V14.01,2013-01-31 15:57:00,
2013-01-31 11:00:00,59.5,42.9,30.12,NW,317,7.0,17.0,54,0.00,,,0.06,VWS V14.01,2013-01-31 16:00:00,
2013-01-31 11:07:00,60.3,42.1,30.11,NNE,27,5.0,13.0,51,0.00,,,0.06,VWS V14.01,2013-01-31 16:07:00,
2013-01-31 11:10:00,60.3,42.1,30.11,NNE,27,5.0,13.0,51,0.00,,,0.06,VWS V14.01,2013-01-31 16:10:00,
2013-01-31 11:17:00,60.4,42.7,30.12,NW,321,12.0,15.0,52,0.00,,,0.06,VWS V14.01,2013-01-31 16:17:00,
2013-01-31 11:27:00,60.3,41.6,30.12,WNW,300,7.0,14.0,50,0.00,,,0.06,VWS V14.01,2013-01-31 16:27:00,
2013-01-31 11:30:00,60.3,41.6,30.12,WNW,300,7.0,14.0,50,0.00,,,0.06,VWS V14.01,2013-01-31 16:30:00,
2013-01-31 11:37:00,60.9,42.2,30.12,WNW,293,5.0,14.0,50,0.00,,,0.06,VWS V14.01,2013-01-31 16:37:00,
2013-01-31 11:40:00,60.9,42.2,30.12,WNW,293,5.0,14.0,50,0.00,,,0.06,VWS V14.01,2013-01-31 16:40:00,
2013-01-31 11:47:00,61.4,43.1,30.11,NNW,338,7.0,14.0,51,0.00,,,0.06,VWS V14.01,2013-01-31 16:47:00,
2013-01-31 11:50:00,61.4,43.1,30.11,NNW,338,7.0,14.0,51,0.00,,,0.06,VWS V14.01,2013-01-31 16:50:00,
2013-01-31 11:57:00,61.6,42.8,30.11,NNW,342,7.0,15.0,50,0.00,,,0.06,VWS V14.01,2013-01-31 16:57:00,
2013-01-31 12:00:00,61.6,42.8,30.11,NNW,342,7.0,15.0,50,0.00,,,0.06,VWS V14.01,2013-01-31 17:00:00,
2013-01-31 12:07:00,61.6,42.8,30.11,NNW,333,7.0,14.0,50,0.00,,,0.06,VWS V14.01,2013-01-31 17:07:00,
2013-01-31 12:10:00,61.6,42.8,30.11,NNW,333,7.0,14.0,50,0.00,,,0.06,VWS V14.01,2013-01-31 17:10:00,
2013-01-31 12:17:00,62.3,42.9,30.11,North,355,10.0,16.0,49,0.00,,,0.06,VWS V14.01,2013-01-31 17:17:00,
2013-01-31 12:20:00,62.3,42.9,30.11,North,355,10.0,16.0,49,0.00,,,0.06,VWS V14.01,2013-01-31 17:20:00,
2013-01-31 12:27:00,62.5,43.6,30.10,NNW,344,12.0,15.0,50,0.00,,,0.06,VWS V14.01,2013-01-31 17:27:00,
2013-01-31 12:30:00,62.5,43.6,30.10,NNW,344,12.0,15.0,50,0.00,,,0.06,VWS V14.01,2013-01-31 17:30:00,
2013-01-31 12:37:00,62.3,43.4,30.10,North,5,6.0,15.0,50,0.00,,,0.06,VWS V14.01,2013-01-31 17:37:00,
2013-01-31 12:40:00,62.3,43.4,30.10,North,5,6.0,15.0,50,0.00,,,0.06,VWS V14.01,2013-01-31 17:40:00,
2013-01-31 12:47:00,61.9,42.5,30.10,WNW,294,9.0,14.0,49,0.00,,,0.06,VWS V14.01,2013-01-31 17:47:00,
2013-01-31 12:50:00,61.9,42.5,30.10,WNW,294,9.0,14.0,49,0.00,,,0.06,VWS V14.01,2013-01-31 17:50:00,
2013-01-31 12:57:00,62.9,44.0,30.10,NNW,330,10.0,12.0,50,0.00,,,0.06,VWS V14.01,2013-01-31 17:57:00,
2013-01-31 13:00:00,62.9,44.0,30.10,NNW,330,10.0,12.0,50,0.00,,,0.06,VWS V14.01,2013-01-31 18:00:00,
2013-01-31 13:07:00,62.2,43.3,30.09,NNW,336,4.0,11.0,50,0.00,,,0.06,VWS V14.01,2013-01-31 18:07:00,
2013-01-31 13:17:00,62.7,41.6,30.09,NNW,333,8.0,19.0,46,0.00,,,0.06,VWS V14.01,2013-01-31 18:17:00,
2013-01-31 13:20:00,62.7,41.6,30.09,NNW,333,8.0,19.0,46,0.00,,,0.06,VWS V14.01,2013-01-31 18:20:00,
2013-01-31 13:27:00,62.9,36.9,30.09,NNW,328,9.0,16.0,38,0.00,,,0.06,VWS V14.01,2013-01-31 18:27:00,
2013-01-31 13:30:00,62.9,36.9,30.09,NNW,328,9.0,16.0,38,0.00,,,0.06,VWS V14.01,2013-01-31 18:30:00,
2013-01-31 13:37:00,63.0,38.3,30.09,NNW,330,11.0,15.0,40,0.00,,,0.06,VWS V14.01,2013-01-31 18:37:00,
2013-01-31 13:40:00,63.0,38.3,30.09,NNW,330,11.0,15.0,40,0.00,,,0.06,VWS V14.01,2013-01-31 18:40:00,
2013-01-31 13:47:00,63.2,37.9,30.09,WNW,300,7.0,17.0,39,0.00,,,0.06,VWS V14.01,2013-01-31 18:47:00,
2013-01-31 13:50:00,63.2,37.9,30.09,WNW,300,7.0,17.0,39,0.00,,,0.06,VWS V14.01,2013-01-31 18:50:00,
2013-01-31 13:57:00,63.4,38.0,30.09,NNW,345,8.0,11.0,39,0.00,,,0.06,VWS V14.01,2013-01-31 18:57:00,
2013-01-31 14:00:00,63.4,38.0,30.09,NNW,345,8.0,11.0,39,0.00,,,0.06,VWS V14.01,2013-01-31 19:00:00,
2013-01-31 14:07:00,63.6,38.2,30.09,NNE,17,10.0,13.0,39,0.00,,,0.06,VWS V14.01,2013-01-31 19:07:00,
2013-01-31 14:10:00,63.6,38.2,30.09,NNE,17,10.0,13.0,39,0.00,,,0.06,VWS V14.01,2013-01-31 19:10:00,
2013-01-31 14:17:00,63.3,34.5,30.09,WNW,290,8.0,16.0,34,0.00,,,0.06,VWS V14.01,2013-01-31 19:17:00,
2013-01-31 14:20:00,63.3,34.5,30.09,WNW,290,8.0,16.0,34,0.00,,,0.06,VWS V14.01,2013-01-31 19:20:00,
2013-01-31 14:27:00,63.6,36.2,30.09,WNW,292,7.0,14.0,36,0.00,,,0.06,VWS V14.01,2013-01-31 19:27:00,
2013-01-31 14:30:00,63.6,36.2,30.09,WNW,292,7.0,14.0,36,0.00,,,0.06,VWS V14.01,2013-01-31 19:30:00,
2013-01-31 14:37:00,64.2,37.4,30.10,NNE,13,8.0,11.0,37,0.00,,,0.06,VWS V14.01,2013-01-31 19:37:00,
2013-01-31 14:40:00,64.2,37.4,30.10,NNE,13,8.0,11.0,37,0.00,,,0.06,VWS V14.01,2013-01-31 19:40:00,
2013-01-31 14:47:00,63.8,37.7,30.09,West,277,5.0,12.0,38,0.00,,,0.06,VWS V14.01,2013-01-31 19:47:00,
2013-01-31 14:50:00,63.8,37.7,30.09,West,277,5.0,12.0,38,0.00,,,0.06,VWS V14.01,2013-01-31 19:50:00,
2013-01-31 14:57:00,63.5,36.8,30.09,WNW,290,3.0,14.0,37,0.00,,,0.06,VWS V14.01,2013-01-31 19:57:00,
2013-01-31 15:00:00,63.5,36.8,30.09,WNW,290,3.0,14.0,37,0.00,,,0.06,VWS V14.01,2013-01-31 20:00:00,
2013-01-31 15:07:00,64.5,39.7,30.09,NNW,336,5.0,12.0,40,0.00,,,0.06,VWS V14.01,2013-01-31 20:07:00,
2013-01-31 15:10:00,64.5,39.7,30.09,NNW,336,5.0,12.0,40,0.00,,,0.06,VWS V14.01,2013-01-31 20:10:00,
2013-01-31 15:17:00,64.5,39.7,30.09,WNW,302,5.0,17.0,40,0.00,,,0.06,VWS V14.01,2013-01-31 20:17:00,
2013-01-31 15:20:00,64.5,39.7,30.09,WNW,302,5.0,17.0,40,0.00,,,0.06,VWS V14.01,2013-01-31 20:20:00,
2013-01-31 15:27:00,63.5,36.8,30.09,WNW,292,5.0,14.0,37,0.00,,,0.06,VWS V14.01,2013-01-31 20:27:00,
2013-01-31 15:30:00,63.5,36.8,30.09,WNW,292,5.0,14.0,37,0.00,,,0.06,VWS V14.01,2013-01-31 20:30:00,
2013-01-31 15:37:00,64.7,37.8,30.09,WNW,302,4.0,16.0,37,0.00,,,0.06,VWS V14.01,2013-01-31 20:37:00,
2013-01-31 15:40:00,64.7,37.8,30.09,WNW,302,4.0,16.0,37,0.00,,,0.06,VWS V14.01,2013-01-31 20:40:00,
2013-01-31 15:47:00,64.2,34.5,30.10,NNW,346,10.0,12.0,33,0.00,,,0.06,VWS V14.01,2013-01-31 20:47:00,
2013-01-31 15:50:00,64.2,34.5,30.10,NNW,346,10.0,12.0,33,0.00,,,0.06,VWS V14.01,2013-01-31 20:50:00,
2013-01-31 15:57:00,63.8,34.9,30.10,NNW,336,7.0,15.0,34,0.00,,,0.06,VWS V14.01,2013-01-31 20:57:00,
2013-01-31 16:00:00,63.8,34.9,30.10,NNW,336,7.0,15.0,34,0.00,,,0.06,VWS V14.01,2013-01-31 21:00:00,
2013-01-31 16:07:00,63.5,33.9,30.10,NNW,327,10.0,14.0,33,0.00,,,0.06,VWS V14.01,2013-01-31 21:07:00,
2013-01-31 16:10:00,63.5,33.9,30.10,NNW,327,10.0,14.0,33,0.00,,,0.06,VWS V14.01,2013-01-31 21:10:00,
2013-01-31 16:17:00,63.7,34.8,30.10,NNW,333,7.0,14.0,34,0.00,,,0.06,VWS V14.01,2013-01-31 21:17:00,
2013-01-31 16:20:00,63.7,34.8,30.10,NNW,333,7.0,14.0,34,0.00,,,0.06,VWS V14.01,2013-01-31 21:20:00,
2013-01-31 16:27:00,64.0,33.6,30.10,NW,305,3.0,8.0,32,0.00,,,0.06,VWS V14.01,2013-01-31 21:27:00,
2013-01-31 16:30:00,64.0,33.6,30.10,NW,305,3.0,8.0,32,0.00,,,0.06,VWS V14.01,2013-01-31 21:30:00,
2013-01-31 16:37:00,63.3,32.2,30.10,West,277,6.0,15.0,31,0.00,,,0.06,VWS V14.01,2013-01-31 21:37:00,
2013-01-31 16:40:00,63.3,32.2,30.10,West,277,6.0,15.0,31,0.00,,,0.06,VWS V14.01,2013-01-31 21:40:00,
2013-01-31 16:47:00,63.3,33.0,30.11,NW,316,6.0,14.0,32,0.00,,,0.06,VWS V14.01,2013-01-31 21:47:00,
2013-01-31 16:50:00,63.3,33.0,30.11,NW,316,6.0,14.0,32,0.00,,,0.06,VWS V14.01,2013-01-31 21:50:00,
2013-01-31 16:57:00,62.9,32.6,30.11,NNW,336,6.0,12.0,32,0.00,,,0.06,VWS V14.01,2013-01-31 21:57:00,
2013-01-31 17:00:00,62.9,32.6,30.11,NNW,336,6.0,12.0,32,0.00,,,0.06,VWS V14.01,2013-01-31 22:00:00,
2013-01-31 17:07:00,62.7,33.2,30.11,NNW,344,3.0,11.0,33,0.00,,,0.06,VWS V14.01,2013-01-31 22:07:00,
2013-01-31 17:10:00,62.7,33.2,30.11,NNW,344,3.0,11.0,33,0.00,,,0.06,VWS V14.01,2013-01-31 22:10:00,
2013-01-31 17:17:00,62.3,32.9,30.11,NNW,346,4.0,11.0,33,0.00,,,0.06,VWS V14.01,2013-01-31 22:17:00,
2013-01-31 17:20:00,62.3,32.8,30.11,NNW,346,4.0,11.0,33,0.00,,,0.06,VWS V14.01,2013-01-31 22:20:00,
2013-01-31 17:27:00,62.0,32.6,30.11,NNW,341,4.0,8.0,33,0.00,,,0.06,VWS V14.01,2013-01-31 22:27:00,
2013-01-31 17:30:00,62.0,32.6,30.11,NNW,341,4.0,8.0,33,0.00,,,0.06,VWS V14.01,2013-01-31 22:30:00,
2013-01-31 17:37:00,61.0,31.7,30.11,NNW,336,5.0,9.0,33,0.00,,,0.06,VWS V14.01,2013-01-31 22:37:00,
2013-01-31 17:47:00,59.9,32.2,30.11,NNW,340,2.0,10.0,35,0.00,,,0.06,VWS V14.01,2013-01-31 22:47:00,
2013-01-31 17:50:00,59.9,32.2,30.11,NNW,340,2.0,10.0,35,0.00,,,0.06,VWS V14.01,2013-01-31 22:50:00,
2013-01-31 17:57:00,59.1,32.9,30.12,WNW,295,4.0,8.0,37,0.00,,,0.06,VWS V14.01,2013-01-31 22:57:00,
2013-01-31 18:00:00,59.1,32.9,30.12,WNW,295,4.0,8.0,37,0.00,,,0.06,VWS V14.01,2013-01-31 23:00:00,
2013-01-31 18:07:00,58.2,33.4,30.12,WNW,290,2.0,11.0,39,0.00,,,0.06,VWS V14.01,2013-01-31 23:07:00,
2013-01-31 18:17:00,57.5,34.0,30.12,NW,309,4.0,9.0,41,0.00,,,0.06,VWS V14.01,2013-01-31 23:17:00,
2013-01-31 18:20:00,57.5,34.0,30.12,NW,309,4.0,9.0,41,0.00,,,0.06,VWS V14.01,2013-01-31 23:20:00,
2013-01-31 18:27:00,56.8,34.0,30.13,NW,304,1.0,8.0,42,0.00,,,0.06,VWS V14.01,2013-01-31 23:27:00,
2013-01-31 18:30:00,56.8,34.0,30.13,NW,304,1.0,8.0,42,0.00,,,0.06,VWS V14.01,2013-01-31 23:30:00,
2013-01-31 18:37:00,55.8,33.1,30.13,NW,314,1.0,7.0,42,0.00,,,0.06,VWS V14.01,2013-01-31 23:37:00,
2013-01-31 18:40:00,55.8,33.1,30.13,NW,314,1.0,7.0,42,0.00,,,0.06,VWS V14.01,2013-01-31 23:40:00,
2013-01-31 18:47:00,55.2,33.1,30.13,NW,314,3.0,7.0,43,0.00,,,0.06,VWS V14.01,2013-01-31 23:47:00,
2013-01-31 18:50:00,55.2,33.1,30.13,NW,314,3.0,7.0,43,0.00,,,0.06,VWS V14.01,2013-01-31 23:50:00,
2013-01-31 18:57:00,54.5,33.0,30.13,WNW,298,3.0,8.0,44,0.00,,,0.06,VWS V14.01,2013-01-31 23:57:00,
2013-01-31 19:00:00,54.5,33.0,30.13,WNW,298,3.0,8.0,44,0.00,,,0.06,VWS V14.01,2013-02-01 00:00:00,
2013-01-31 19:07:00,54.1,33.2,30.14,NW,315,3.0,9.0,45,0.00,,,0.06,VWS V14.01,2013-02-01 00:07:00,
2013-01-31 19:10:00,54.1,33.2,30.14,NW,315,3.0,9.0,45,0.00,,,0.06,VWS V14.01,2013-02-01 00:10:00,
2013-01-31 19:17:00,53.6,33.3,30.14,NW,315,3.0,6.0,46,0.00,,,0.06,VWS V14.01,2013-02-01 00:17:00,
2013-01-31 19:20:00,53.6,33.3,30.14,NW,315,3.0,6.0,46,0.00,,,0.06,VWS V14.01,2013-02-01 00:20:00,
2013-01-31 19:27:00,53.1,33.4,30.15,WNW,298,4.0,8.0,47,0.00,,,0.06,VWS V14.01,2013-02-01 00:27:00,
2013-01-31 19:30:00,53.1,33.4,30.15,WNW,298,4.0,8.0,47,0.00,,,0.06,VWS V14.01,2013-02-01 00:30:00,
2013-01-31 19:37:00,53.0,34.4,30.16,NW,311,5.0,11.0,49,0.00,,,0.06,VWS V14.01,2013-02-01 00:37:00,
2013-01-31 19:40:00,53.0,34.4,30.16,NW,311,5.0,11.0,49,0.00,,,0.06,VWS V14.01,2013-02-01 00:40:00,
2013-01-31 19:47:00,52.7,34.6,30.16,West,279,2.0,8.0,50,0.00,,,0.06,VWS V14.01,2013-02-01 00:47:00,
2013-01-31 19:50:00,52.7,34.6,30.16,West,279,2.0,8.0,50,0.00,,,0.06,VWS V14.01,2013-02-01 00:50:00,
2013-01-31 19:57:00,52.0,34.5,30.17,NW,308,4.0,10.0,51,0.00,,,0.06,VWS V14.01,2013-02-01 00:57:00,
2013-01-31 20:00:00,52.0,34.5,30.17,NW,308,4.0,10.0,51,0.00,,,0.06,VWS V14.01,2013-02-01 01:00:00,
2013-01-31 20:07:00,51.8,35.2,30.17,NW,308,4.0,10.0,53,0.00,,,0.06,VWS V14.01,2013-02-01 01:07:00,
2013-01-31 20:10:00,51.8,35.2,30.17,NW,308,4.0,10.0,53,0.00,,,0.06,VWS V14.01,2013-02-01 01:10:00,
2013-01-31 20:17:00,51.4,34.9,30.17,NNW,327,5.0,10.0,53,0.00,,,0.06,VWS V14.01,2013-02-01 01:17:00,
2013-01-31 20:20:00,51.4,34.9,30.17,NNW,327,5.0,10.0,53,0.00,,,0.06,VWS V14.01,2013-02-01 01:20:00,
2013-01-31 20:27:00,51.0,35.0,30.18,NW,306,3.0,10.0,54,0.00,,,0.06,VWS V14.01,2013-02-01 01:27:00,
2013-01-31 20:30:00,51.0,35.0,30.18,NW,306,3.0,10.0,54,0.00,,,0.06,VWS V14.01,2013-02-01 01:30:00,
2013-01-31 20:37:00,50.5,35.0,30.18,NW,317,3.0,7.0,55,0.00,,,0.06,VWS V14.01,2013-02-01 01:37:00,
2013-01-31 20:40:00,50.5,35.0,30.18,NW,317,3.0,7.0,55,0.00,,,0.06,VWS V14.01,2013-02-01 01:40:00,
2013-01-31 20:47:00,50.1,35.5,30.18,NW,313,8.0,9.0,57,0.00,,,0.06,VWS V14.01,2013-02-01 01:47:00,
2013-01-31 20:50:00,50.1,35.5,30.18,NW,313,8.0,9.0,57,0.00,,,0.06,VWS V14.01,2013-02-01 01:50:00,
2013-01-31 20:57:00,49.9,35.3,30.18,WNW,282,1.0,9.0,57,0.00,,,0.06,VWS V14.01,2013-02-01 01:57:00,
2013-01-31 21:00:00,49.9,35.3,30.18,WNW,282,1.0,9.0,57,0.00,,,0.06,VWS V14.01,2013-02-01 02:00:00,
2013-01-31 21:07:00,49.3,36.4,30.18,NW,326,3.0,6.0,61,0.00,,,0.06,VWS V14.01,2013-02-01 02:07:00,
2013-01-31 21:10:00,49.3,36.4,30.18,NW,326,3.0,6.0,61,0.00,,,0.06,VWS V14.01,2013-02-01 02:10:00,
2013-01-31 21:17:00,49.1,35.4,30.19,NNW,329,1.0,6.0,59,0.00,,,0.06,VWS V14.01,2013-02-01 02:17:00,
2013-01-31 21:20:00,49.1,35.4,30.19,NNW,329,1.0,6.0,59,0.00,,,0.06,VWS V14.01,2013-02-01 02:20:00,
2013-01-31 21:27:00,48.6,34.9,30.19,NNW,329,2.0,4.0,59,0.00,,,0.06,VWS V14.01,2013-02-01 02:27:00,
2013-01-31 21:30:00,48.6,34.9,30.19,NNW,329,2.0,4.0,59,0.00,,,0.06,VWS V14.01,2013-02-01 02:30:00,
2013-01-31 21:37:00,48.2,35.0,30.19,NW,317,2.0,6.0,60,0.00,,,0.06,VWS V14.01,2013-02-01 02:37:00,
2013-01-31 21:40:00,48.2,35.0,30.19,NW,317,2.0,6.0,60,0.00,,,0.06,VWS V14.01,2013-02-01 02:40:00,
2013-01-31 21:47:00,48.0,34.8,30.19,NNW,329,2.0,7.0,60,0.00,,,0.06,VWS V14.01,2013-02-01 02:47:00,
2013-01-31 21:50:00,48.0,34.8,30.19,NNW,329,2.0,7.0,60,0.00,,,0.06,VWS V14.01,2013-02-01 02:50:00,
2013-01-31 21:57:00,47.7,34.5,30.19,NW,315,2.0,6.0,60,0.00,,,0.06,VWS V14.01,2013-02-01 02:57:00,
2013-01-31 22:00:00,47.7,34.5,30.19,NW,315,2.0,6.0,60,0.00,,,0.06,VWS V14.01,2013-02-01 03:00:00,
2013-01-31 22:07:00,47.5,34.3,30.19,NW,323,5.0,6.0,60,0.00,,,0.06,VWS V14.01,2013-02-01 03:07:00,
2013-01-31 22:10:00,47.5,34.3,30.19,NW,323,5.0,6.0,60,0.00,,,0.06,VWS V14.01,2013-02-01 03:10:00,
2013-01-31 22:17:00,47.5,34.3,30.19,NNW,331,2.0,7.0,60,0.00,,,0.06,VWS V14.01,2013-02-01 03:17:00,
2013-01-31 22:20:00,47.5,34.3,30.19,NNW,331,2.0,7.0,60,0.00,,,0.06,VWS V14.01,2013-02-01 03:20:00,
2013-01-31 22:27:00,47.5,34.3,30.19,NW,321,3.0,6.0,60,0.00,,,0.06,VWS V14.01,2013-02-01 03:27:00,
2013-01-31 22:30:00,47.5,34.3,30.19,NW,321,3.0,6.0,60,0.00,,,0.06,VWS V14.01,2013-02-01 03:30:00,
2013-01-31 22:37:00,47.1,33.9,30.19,NW,319,2.0,6.0,60,0.00,,,0.06,VWS V14.01,2013-02-01 03:37:00,
2013-01-31 22:40:00,47.1,33.9,30.19,NW,319,2.0,6.0,60,0.00,,,0.06,VWS V14.01,2013-02-01 03:40:00,
2013-01-31 22:47:00,46.6,33.0,30.20,NW,321,6.0,6.0,59,0.00,,,0.06,VWS V14.01,2013-02-01 03:47:00,
2013-01-31 22:50:00,46.6,33.1,30.20,NW,321,6.0,6.0,59,0.00,,,0.06,VWS V14.01,2013-02-01 03:50:00,
2013-01-31 22:57:00,46.2,32.7,30.20,NNW,331,2.0,6.0,59,0.00,,,0.06,VWS V14.01,2013-02-01 03:57:00,
2013-01-31 23:00:00,46.2,32.7,30.20,NNW,331,2.0,6.0,59,0.00,,,0.06,VWS V14.01,2013-02-01 04:00:00,
2013-01-31 23:07:00,45.9,32.4,30.20,North,360,3.0,8.0,59,0.00,,,0.06,VWS V14.01,2013-02-01 04:07:00,
2013-01-31 23:10:00,45.9,32.4,30.20,North,360,3.0,8.0,59,0.00,,,0.06,VWS V14.01,2013-02-01 04:10:00,
2013-01-31 23:17:00,46.1,32.6,30.21,NNW,336,4.0,7.0,59,0.00,,,0.06,VWS V14.01,2013-02-01 04:17:00,
2013-01-31 23:20:00,46.1,32.6,30.21,NNW,336,4.0,7.0,59,0.00,,,0.06,VWS V14.01,2013-02-01 04:20:00,
2013-01-31 23:27:00,46.3,32.8,30.21,NW,323,7.0,10.0,59,0.00,,,0.06,VWS V14.01,2013-02-01 04:27:00,
2013-01-31 23:30:00,46.3,32.8,30.21,NW,323,7.0,10.0,59,0.00,,,0.06,VWS V14.01,2013-02-01 04:30:00,
2013-01-31 23:37:00,46.4,32.9,30.21,North,350,4.0,7.0,59,0.00,,,0.06,VWS V14.01,2013-02-01 04:37:00,
2013-01-31 23:40:00,46.4,32.9,30.21,North,350,4.0,7.0,59,0.00,,,0.06,VWS V14.01,2013-02-01 04:40:00,
2013-01-31 23:47:00,45.8,32.3,30.21,North,355,2.0,8.0,59,0.00,,,0.06,VWS V14.01,2013-02-01 04:47:00,
2013-01-31 23:50:00,45.8,32.3,30.21,North,355,2.0,8.0,59,0.00,,,0.06,VWS V14.01,2013-02-01 04:50:00,
2013-01-31 23:57:00,45.8,32.3,30.21,North,355,2.0,8.0,59,0.00,,,0.06,VWS V14.01,2013-02-01 04:57:00,